| time (UTC) | temp C | wind direction | speed KPH | gust KPH | rain 1hr cm | rain 24hr cm | rain mn cm | humidity % | barometer mb |
| 20260505004728 | 18 | 34 | 12.9 | 32.2 | 0.00 | 0.00 | 0.00 | 20 | 1001.7 |
| 20260505004003 | 18 | 35 | 9.7 | 16.1 | 0.00 | 0.00 | 0.00 | 18 | 1001.7 |
| 20260505003501 | 19 | 33 | 11.3 | 29.0 | 0.00 | 0.00 | 0.00 | 18 | 1001.5 |
| 20260505003002 | 19 | 333 | 11.3 | 29.0 | 0.00 | 0.00 | 0.00 | 18 | 1001.7 |
| 20260505002501 | 20 | 333 | 12.9 | 29.0 | 0.00 | 0.00 | 0.00 | 17 | 1001.5 |
| 20260505002000 | 20 | 313 | 11.3 | 29.0 | 0.00 | 0.00 | 0.00 | 17 | 1001.5 |
| 20260505001727 | 20 | 258 | 9.7 | 19.3 | 0.00 | 0.00 | 0.00 | 17 | 1001.4 |
| 20260505001003 | 20 | 304 | 11.3 | 19.3 | 0.00 | 0.00 | 0.00 | 16 | 1001.4 |
| 20260505000501 | 20 | 316 | 11.3 | 19.3 | 0.00 | 0.00 | 0.00 | 17 | 1001.7 |
| 20260505000003 | 20 | 285 | 11.3 | 19.3 | 0.00 | 0.00 | 0.00 | 17 | 1001.5 |
| 20260504235501 | 20 | 36 | 9.7 | 20.9 | 0.00 | 0.00 | 0.00 | 17 | 1001.5 |
| 20260504235001 | 19 | 286 | 9.7 | 20.9 | 0.00 | 0.00 | 0.00 | 17 | 1001.5 |
| 20260504234502 | 19 | 283 | 11.3 | 20.9 | 0.00 | 0.00 | 0.00 | 17 | 1001.7 |
| 20260504233501 | 20 | 29 | 8.0 | 17.7 | 0.00 | 0.00 | 0.00 | 17 | 1001.5 |
| 20260504233001 | 20 | 53 | 11.3 | 33.8 | 0.00 | 0.00 | 0.00 | 18 | 1001.5 |
| 20260504232501 | 19 | 37 | 17.7 | 33.8 | 0.00 | 0.00 | 0.00 | 17 | 1001.5 |
| 20260504232229 | 19 | 56 | 19.3 | 33.8 | 0.00 | 0.00 | 0.00 | 18 | 1001.5 |
| 20260504231002 | 20 | 34 | 17.7 | 30.6 | 0.00 | 0.00 | 0.00 | 17 | 1001.5 |
| 20260504230501 | 20 | 300 | 17.7 | 32.2 | 0.00 | 0.00 | 0.00 | 17 | 1001.5 |
| 20260504230001 | 20 | 338 | 14.5 | 32.2 | 0.00 | 0.00 | 0.00 | 16 | 1001.5 |
| 20260504225502 | 20 | 25 | 11.3 | 30.6 | 0.00 | 0.00 | 0.00 | 16 | 1001.5 |
| 20260504225003 | 20 | 310 | 9.7 | 20.9 | 0.00 | 0.00 | 0.00 | 16 | 1001.4 |
| 20260504224502 | 20 | 301 | 11.3 | 24.1 | 0.00 | 0.00 | 0.00 | 16 | 1001.4 |
| 20260504224001 | 20 | 20 | 12.9 | 25.7 | 0.00 | 0.00 | 0.00 | 16 | 1001.7 |
| 20260504223501 | 20 | 303 | 11.3 | 25.7 | 0.00 | 0.00 | 0.00 | 15 | 1001.5 |
| 20260504223003 | 20 | 318 | 9.7 | 24.1 | 0.00 | 0.00 | 0.00 | 16 | 1001.5 |
| 20260504222501 | 20 | 314 | 14.5 | 32.2 | 0.00 | 0.00 | 0.00 | 16 | 1001.7 |
| 20260504222449 | 20 | 92 | 17.7 | 35.4 | 0.00 | 0.00 | 0.00 | 15 | 1001.7 |
| 20260504221503 | 20 | 297 | 14.5 | 35.4 | 0.00 | 0.00 | 0.00 | 16 | 1001.7 |
| 20260504221001 | 20 | 55 | 11.3 | 22.5 | 0.00 | 0.00 | 0.00 | 17 | 1001.8 |
| 20260504220501 | 20 | 333 | 14.5 | 24.1 | 0.00 | 0.00 | 0.00 | 17 | 1001.8 |
| 20260504220001 | 20 | 314 | 14.5 | 24.1 | 0.00 | 0.00 | 0.00 | 17 | 1001.9 |
| 20260504215504 | 20 | 24 | 9.7 | 19.3 | 0.00 | 0.00 | 0.00 | 18 | 1002.0 |
| 20260504215230 | 19 | 291 | 9.7 | 20.9 | 0.00 | 0.00 | 0.00 | 17 | 1002.0 |
| 20260504214501 | 19 | 55 | 11.3 | 20.9 | 0.00 | 0.00 | 0.00 | 18 | 1002.2 |
| 20260504214003 | 18 | 351 | 11.3 | 25.7 | 0.00 | 0.00 | 0.00 | 18 | 1002.3 |
| 20260504213501 | 18 | 22 | 11.3 | 25.7 | 0.00 | 0.00 | 0.00 | 18 | 1002.5 |
| 20260504213002 | 19 | 311 | 16.1 | 29.0 | 0.00 | 0.00 | 0.00 | 17 | 1002.5 |
| 20260504212504 | 20 | 325 | 12.9 | 29.0 | 0.00 | 0.00 | 0.00 | 16 | 1002.6 |
| 20260504212005 | 20 | 38 | 6.4 | 19.3 | 0.00 | 0.00 | 0.00 | 16 | 1002.6 |
| 20260504211502 | 20 | 217 | 8.0 | 32.2 | 0.00 | 0.00 | 0.00 | 17 | 1002.6 |
| 20260504211004 | 20 | 282 | 12.9 | 32.2 | 0.00 | 0.00 | 0.00 | 16 | 1002.6 |
| 20260504210502 | 19 | 53 | 16.1 | 33.8 | 0.00 | 0.00 | 0.00 | 16 | 1002.8 |
| 20260504210004 | 19 | 302 | 14.5 | 33.8 | 0.00 | 0.00 | 0.00 | 16 | 1002.8 |
| 20260504205728 | 19 | 347 | 9.7 | 22.5 | 0.00 | 0.00 | 0.00 | 17 | 1002.9 |
| 20260504205001 | 18 | 260 | 12.9 | 25.7 | 0.00 | 0.00 | 0.00 | 16 | 1002.9 |
| 20260504204504 | 19 | 296 | 11.3 | 25.7 | 0.00 | 0.00 | 0.00 | 15 | 1003.0 |
| 20260504204003 | 19 | 294 | 11.3 | 22.5 | 0.00 | 0.00 | 0.00 | 16 | 1003.0 |
| 20260504203501 | 20 | 292 | 14.5 | 24.1 | 0.00 | 0.00 | 0.00 | 15 | 1003.1 |
| 20260504203001 | 20 | 311 | 14.5 | 24.1 | 0.00 | 0.00 | 0.00 | 16 | 1003.1 |
| 20260504202503 | 19 | 290 | 11.3 | 22.5 | 0.00 | 0.00 | 0.00 | 17 | 1003.1 |
| 20260504202001 | 20 | 252 | 9.7 | 25.7 | 0.00 | 0.00 | 0.00 | 16 | 1003.2 |
| 20260504201501 | 19 | 319 | 8.0 | 25.7 | 0.00 | 0.00 | 0.00 | 16 | 1003.4 |
| 20260504201001 | 19 | 257 | 8.0 | 19.3 | 0.00 | 0.00 | 0.00 | 17 | 1003.4 |
| 20260504200502 | 18 | 28 | 9.7 | 19.3 | 0.00 | 0.00 | 0.00 | 17 | 1003.6 |
| 20260504200225 | 18 | 74 | 11.3 | 19.3 | 0.00 | 0.00 | 0.00 | 17 | 1003.6 |
| 20260504195501 | 18 | 319 | 11.3 | 20.9 | 0.00 | 0.00 | 0.00 | 17 | 1003.7 |
| 20260504195003 | 19 | 310 | 12.9 | 20.9 | 0.00 | 0.00 | 0.00 | 17 | 1003.7 |
| 20260504194501 | 19 | 334 | 11.3 | 20.9 | 0.00 | 0.00 | 0.00 | 17 | 1003.6 |
| 20260504194227 | 19 | 321 | 9.7 | 20.9 | 0.00 | 0.00 | 0.00 | 17 | 1003.8 |
| 20260504193502 | 19 | 259 | 9.7 | 20.9 | 0.00 | 0.00 | 0.00 | 17 | 1003.7 |
| 20260504193000 | 18 | 304 | 9.7 | 20.9 | 0.00 | 0.00 | 0.00 | 18 | 1004.0 |
| 20260504192501 | 18 | 291 | 8.0 | 20.9 | 0.00 | 0.00 | 0.00 | 18 | 1004.0 |
| 20260504192001 | 18 | 333 | 9.7 | 22.5 | 0.00 | 0.00 | 0.00 | 18 | 1004.1 |
| 20260504191504 | 18 | 294 | 12.9 | 22.5 | 0.00 | 0.00 | 0.00 | 18 | 1004.2 |
| 20260504191227 | 18 | 306 | 11.3 | 24.1 | 0.00 | 0.00 | 0.00 | 17 | 1004.2 |
| 20260504190500 | 18 | 39 | 12.9 | 25.7 | 0.00 | 0.00 | 0.00 | 18 | 1004.2 |
| 20260504190002 | 18 | 337 | 14.5 | 25.7 | 0.00 | 0.00 | 0.00 | 18 | 1004.4 |
| 20260504185500 | 19 | 341 | 9.7 | 24.1 | 0.00 | 0.00 | 0.00 | 18 | 1004.4 |
| 20260504185000 | 18 | 315 | 6.4 | 19.3 | 0.00 | 0.00 | 0.00 | 18 | 1004.4 |
| 20260504184503 | 18 | 233 | 6.4 | 19.3 | 0.00 | 0.00 | 0.00 | 19 | 1004.7 |
| 20260504184209 | 18 | 266 | 9.7 | 19.3 | 0.00 | 0.00 | 0.00 | 19 | 1004.8 |
| 20260504183001 | 18 | 250 | 11.3 | 22.5 | 0.00 | 0.00 | 0.00 | 19 | 1004.8 |
| 20260504182731 | 17 | 296 | 11.3 | 22.5 | 0.00 | 0.00 | 0.00 | 19 | 1004.9 |
| 20260504182000 | 18 | 325 | 8.0 | 19.3 | 0.00 | 0.00 | 0.00 | 19 | 1005.0 |
| 20260504181500 | 18 | 267 | 6.4 | 22.5 | 0.00 | 0.00 | 0.00 | 18 | 1005.0 |
| 20260504181002 | 18 | 342 | 4.8 | 22.5 | 0.00 | 0.00 | 0.00 | 20 | 1005.0 |
| 20260504180727 | 18 | 271 | 4.8 | 14.5 | 0.00 | 0.00 | 0.00 | 20 | 1005.2 |
| 20260504180118 | 17 | 163 | 6.4 | 14.5 | 0.00 | 0.00 | 0.00 | 20 | 1005.3 |
| 20260504175502 | 17 | 269 | 4.8 | 14.5 | 0.00 | 0.00 | 0.00 | 20 | 1005.3 |
| 20260504175001 | 17 | 315 | 4.8 | 14.5 | 0.00 | 0.00 | 0.00 | 21 | 1005.4 |
| 20260504174500 | 17 | 340 | 8.0 | 16.1 | 0.00 | 0.00 | 0.00 | 21 | 1005.4 |
| 20260504174000 | 17 | 82 | 6.4 | 16.1 | 0.00 | 0.00 | 0.00 | 21 | 1005.5 |
| 20260504173500 | 17 | 40 | 3.2 | 9.7 | 0.00 | 0.00 | 0.00 | 21 | 1005.7 |
| 20260504173452 | 18 | 142 | 3.2 | 12.9 | 0.00 | 0.00 | 0.00 | 23 | 1005.5 |
| 20260504172500 | 17 | 233 | 6.4 | 12.9 | 0.00 | 0.00 | 0.00 | 23 | 1005.7 |
| 20260504172001 | 17 | 62 | 6.4 | 12.9 | 0.00 | 0.00 | 0.00 | 24 | 1005.7 |
| 20260504171731 | 17 | 78 | 6.4 | 17.7 | 0.00 | 0.00 | 0.00 | 23 | 1005.7 |
| 20260504171001 | 17 | 171 | 8.0 | 17.7 | 0.00 | 0.00 | 0.00 | 24 | 1005.8 |
| 20260504170500 | 17 | 254 | 9.7 | 17.7 | 0.00 | 0.00 | 0.00 | 24 | 1005.8 |
| 20260504151004 | 10 | 53 | 11.3 | 14.5 | 0.00 | 0.00 | 0.00 | 40 | 1006.6 |
| 20260504150504 | 9 | 40 | 11.3 | 16.1 | 0.00 | 0.00 | 0.00 | 41 | 1006.5 |
| 20260504141005 | 6 | 82 | 1.6 | 6.4 | 0.00 | 0.00 | 0.00 | 48 | 1007.0 |
| 20260504140502 | 6 | 59 | 1.6 | 9.7 | 0.00 | 0.00 | 0.00 | 50 | 1007.0 |
| 20260504130204 | 2 | 16 | 3.2 | 8.0 | 0.00 | 0.00 | 0.00 | 59 | 1006.6 |
| 20260504110159 | 3 | 90 | 0.0 | 3.2 | 0.00 | 0.00 | 0.00 | 55 | 1006.5 |
| 20260504100409 | 5 | 320 | 0.0 | 1.6 | 0.00 | 0.00 | 0.00 | 49 | 1006.5 |
| 20260504081901 | 6 | 230 | 1.6 | 8.0 | 0.00 | 0.00 | 0.00 | 43 | 1007.2 |
| 20260504081402 | 6 | 223 | 1.6 | 8.0 | 0.00 | 0.00 | 0.00 | 43 | 1007.3 |
| 20260504080901 | 6 | 238 | 3.2 | 8.0 | 0.00 | 0.00 | 0.00 | 43 | 1007.2 |
| 20260504080404 | 6 | 240 | 3.2 | 8.0 | 0.00 | 0.00 | 0.00 | 42 | 1007.2 |
| 20260504070400 | 7 | 266 | 0.0 | 0.0 | 0.00 | 0.00 | 0.00 | 40 | 1007.3 |
| 20260504050403 | 10 | 71 | 3.2 | 8.0 | 0.00 | 0.00 | 0.00 | 32 | 1007.6 |
| 20260504045901 | 10 | 55 | 4.8 | 8.0 | 0.00 | 0.00 | 0.00 | 31 | 1007.6 |
| 20260504045402 | 10 | 85 | 4.8 | 8.0 | 0.00 | 0.00 | 0.00 | 31 | 1007.6 |
| 20260504044904 | 11 | 76 | 4.8 | 8.0 | 0.00 | 0.00 | 0.00 | 30 | 1007.7 |
| 20260504044402 | 11 | 98 | 4.8 | 8.0 | 0.00 | 0.00 | 0.00 | 29 | 1007.7 |
| 20260504043902 | 11 | 90 | 4.8 | 9.7 | 0.00 | 0.00 | 0.00 | 29 | 1007.7 |
| 20260504043402 | 11 | 101 | 4.8 | 9.7 | 0.00 | 0.00 | 0.00 | 28 | 1007.7 |
| 20260504042906 | 13 | 89 | 4.8 | 11.3 | 0.00 | 0.00 | 0.00 | 26 | 1007.7 |
| 20260504042402 | 13 | 309 | 6.4 | 11.3 | 0.00 | 0.00 | 0.00 | 26 | 1007.6 |
| 20260504041902 | 13 | 325 | 8.0 | 12.9 | 0.00 | 0.00 | 0.00 | 25 | 1007.6 |
| 20260504041402 | 13 | 313 | 8.0 | 12.9 | 0.00 | 0.00 | 0.00 | 25 | 1007.5 |
| 20260504040904 | 13 | 311 | 9.7 | 14.5 | 0.00 | 0.00 | 0.00 | 25 | 1007.5 |
| 20260504035902 | 13 | 292 | 11.3 | 17.7 | 0.00 | 0.00 | 0.00 | 26 | 1007.5 |
| 20260504035403 | 13 | 303 | 11.3 | 17.7 | 0.00 | 0.00 | 0.00 | 25 | 1007.5 |
| 20260504034903 | 13 | 295 | 12.9 | 17.7 | 0.00 | 0.00 | 0.00 | 25 | 1007.3 |
| 20260504034402 | 13 | 304 | 12.9 | 17.7 | 0.00 | 0.00 | 0.00 | 24 | 1007.3 |
| 20260504033903 | 13 | 302 | 9.7 | 14.5 | 0.00 | 0.00 | 0.00 | 24 | 1007.3 |
| 20260504033405 | 14 | 306 | 9.7 | 14.5 | 0.00 | 0.00 | 0.00 | 24 | 1007.3 |
| 20260504033132 | 14 | 309 | 8.0 | 14.5 | 0.00 | 0.00 | 0.00 | 24 | 1007.2 |
| 20260504032842 | 14 | 334 | 8.0 | 12.9 | 0.00 | 0.00 | 0.00 | 24 | 1007.2 |
| 20260504031402 | 14 | 306 | 9.7 | 12.9 | 0.00 | 0.00 | 0.00 | 23 | 1007.3 |
| 20260504030904 | 14 | 310 | 9.7 | 17.7 | 0.00 | 0.00 | 0.00 | 23 | 1007.1 |
| 20260504030403 | 14 | 324 | 9.7 | 17.7 | 0.00 | 0.00 | 0.00 | 23 | 1007.0 |
| 20260504025404 | 15 | 355 | 8.0 | 14.5 | 0.00 | 0.00 | 0.00 | 22 | 1007.0 |
| 20260504024902 | 15 | 334 | 9.7 | 19.3 | 0.00 | 0.00 | 0.00 | 21 | 1007.0 |
| 20260504024401 | 16 | 322 | 11.3 | 19.3 | 0.00 | 0.00 | 0.00 | 20 | 1007.0 |
| 20260504023903 | 16 | 303 | 14.5 | 20.9 | 0.00 | 0.00 | 0.00 | 20 | 1007.1 |
| 20260504023855 | 16 | 309 | 14.5 | 20.9 | 0.00 | 0.00 | 0.00 | 19 | 1006.9 |
| 20260504022903 | 16 | 302 | 12.9 | 20.9 | 0.00 | 0.00 | 0.00 | 20 | 1006.9 |
| 20260504022403 | 16 | 294 | 11.3 | 20.9 | 0.00 | 0.00 | 0.00 | 19 | 1007.0 |
| 20260504022355 | 16 | 267 | 9.7 | 19.3 | 0.00 | 0.00 | 0.00 | 20 | 1006.9 |
| 20260504021403 | 16 | 296 | 9.7 | 19.3 | 0.00 | 0.00 | 0.00 | 19 | 1006.9 |
| 20260504020903 | 17 | 290 | 12.9 | 19.3 | 0.00 | 0.00 | 0.00 | 19 | 1006.9 |
| 20260504020402 | 17 | 290 | 14.5 | 22.5 | 0.00 | 0.00 | 0.00 | 18 | 1007.0 |
| 20260504015904 | 17 | 315 | 16.1 | 22.5 | 0.00 | 0.00 | 0.00 | 18 | 1006.9 |
| 20260504015403 | 17 | 294 | 14.5 | 22.5 | 0.00 | 0.00 | 0.00 | 18 | 1006.9 |
| 20260504014901 | 17 | 310 | 14.5 | 22.5 | 0.00 | 0.00 | 0.00 | 18 | 1006.9 |
| 20260504014401 | 17 | 298 | 14.5 | 29.0 | 0.00 | 0.00 | 0.00 | 18 | 1006.9 |
| 20260504013903 | 17 | 305 | 14.5 | 29.0 | 0.00 | 0.00 | 0.00 | 17 | 1006.9 |
| 20260504013402 | 17 | 338 | 14.5 | 29.0 | 0.00 | 0.00 | 0.00 | 17 | 1006.9 |
| 20260504012901 | 17 | 5 | 16.1 | 29.0 | 0.00 | 0.00 | 0.00 | 17 | 1007.0 |
| 20260504011902 | 18 | 322 | 17.7 | 29.0 | 0.00 | 0.00 | 0.00 | 17 | 1006.7 |
| 20260504011402 | 18 | 307 | 19.3 | 30.6 | 0.00 | 0.00 | 0.00 | 17 | 1006.7 |
| 20260504010903 | 18 | 313 | 17.7 | 30.6 | 0.00 | 0.00 | 0.00 | 17 | 1006.7 |
| 20260504010404 | 18 | 315 | 16.1 | 29.0 | 0.00 | 0.00 | 0.00 | 17 | 1006.7 |
| 20260504005904 | 18 | 300 | 16.1 | 29.0 | 0.00 | 0.00 | 0.00 | 17 | 1007.0 |
| 20260504005403 | 18 | 290 | 17.7 | 33.8 | 0.00 | 0.00 | 0.00 | 17 | 1006.9 |
| 20260504004905 | 18 | 296 | 19.3 | 33.8 | 0.00 | 0.00 | 0.00 | 16 | 1006.9 |